Weather History for EHWO - November, 2013

Change the Weather History Date:

Friday, November 15, 2013

  Actual Average Record
Temperature  
Mean Temperature 42 °F -  
Max Temperature 51 °F 45 °F 59 °F (2006)
Min Temperature 32 °F 36 °F 23 °F (2001)
Degree Days  
Heating Degree Days 24    
Moisture  
Dew Point 38 °F    
Average Humidity 93    
Maximum Humidity 100    
Minimum Humidity 67    
Precipitation  
Precipitation 0.00 in - - ()
Sea Level Pressure  
Sea Level Pressure 30.36 in    
Wind  
Wind Speed 3 mph ()    
Max Wind Speed 12 mph    
Max Gust Speed -    
Visibility 4.2 miles    
Events Fog    
Averages and records for this station are not official NWS values.
T = Trace of Precipitation, MM = Missing Value Source: Averaged Metar Reports

Daily Weather History Graph

Daily Weather History Graph

Search for Another Location

Airport or City:

Trip Planner

Search our weather history database for the weather conditions in past years. The results will help you decide how hot, cold, wet, or windy it might be!

Date:

Astronomy

Nov. 15, 2013 Rise Set
Actual Time 8:00 AM CET 4:53 PM CET
Civil Twilight 7:23 AM CET 5:30 PM CET
Nautical Twilight 6:42 AM CET 6:10 PM CET
Astronomical Twilight 6:03 AM CET 6:50 PM CET
Moon 3:52 PM CET (11/15) 5:27 AM CET (11/15)
Length of Visible Light 10h 06m
Length of Day
8h 52m
Waxing Gibbous, 95% of the Moon is Illuminated
Nov 15
Waxing Gibbous
Nov 17
Full
Nov 25
Last Quarter
Dec 3
New
Dec 9
First Quarter

Hourly Weather History & Observations

Time (CET) Temp. Windchill Dew Point Humidity Pressure Visibility Wind Dir Wind Speed Gust Speed Precip Events Conditions
12:25 AM 42.8 °F 41.1 °F 41.0 °F 93% 30.21 in 6.2 mi NW 3.5 mph - N/A   Mostly Cloudy
12:55 AM 42.8 °F 40.1 °F 41.0 °F 93% 30.21 in 6.2 mi NW 4.6 mph - N/A   Unknown
1:25 AM 42.8 °F 41.1 °F 41.0 °F 93% 30.21 in 6.2 mi NW 3.5 mph - N/A   Unknown
1:55 AM 41.0 °F - 39.2 °F 93% 30.21 in 6.2 mi NW 2.3 mph - N/A   Unknown
2:25 AM 37.4 °F - 37.4 °F 100% 30.21 in 5.6 mi Calm Calm - N/A   Mist
2:44 AM 37.4 °F - 35.6 °F 93% 30.24 in 1.6 mi West 1.2 mph - N/A   Mist
2:48 AM 35.6 °F - 35.6 °F 100% 30.24 in 4.3 mi WNW 2.3 mph - N/A   Mist
2:55 AM 37.4 °F - 35.6 °F 93% 30.24 in 6.2 mi NW 1.2 mph - N/A   Unknown
3:08 AM 35.6 °F - 35.6 °F 100% 30.24 in 6.2 mi ENE 1.2 mph - N/A   Unknown
3:17 AM 35.6 °F - 35.6 °F 100% 30.24 in 4.3 mi NE 1.2 mph - N/A   Mist
3:21 AM 35.6 °F - 33.8 °F 93% 30.24 in 1.4 mi NE 1.2 mph - N/A   Mist
3:25 AM 35.6 °F - 33.8 °F 93% 30.24 in 1.4 mi Calm Calm - N/A   Mist
3:36 AM 35.6 °F - 33.8 °F 93% 30.24 in 0.9 mi Calm Calm - N/A   Mist
3:55 AM 35.6 °F - 33.8 °F 93% 30.24 in 1.0 mi SE 1.2 mph - N/A   Mist
3:59 AM 33.8 °F - 33.8 °F 100% 30.24 in 0.9 mi Calm Calm - N/A   Mist
4:03 AM 33.8 °F - 33.8 °F 100% 30.24 in 1.2 mi Calm Calm - N/A   Mist
4:09 AM 33.8 °F - 33.8 °F 100% 30.24 in 0.8 mi Calm Calm - N/A   Mist
4:25 AM 33.8 °F - 33.8 °F 100% 30.24 in 0.7 mi WNW 1.2 mph - N/A   Mist
4:29 AM 33.8 °F - 33.8 °F 100% 30.24 in 1.3 mi Calm Calm - N/A   Mist
4:30 AM 33.8 °F - 33.8 °F 100% 30.24 in 5.6 mi Calm Calm - N/A   Mist
4:39 AM 33.8 °F - 33.8 °F 100% 30.24 in 1.3 mi Calm Calm - N/A   Mist
4:43 AM 33.8 °F - 33.8 °F 100% 30.24 in - Calm Calm - N/A   Mist
4:47 AM 33.8 °F - 32.0 °F 93% 30.27 in 1.1 mi Calm Calm - N/A   Mist
4:51 AM 33.8 °F - 33.8 °F 100% 30.27 in 0.9 mi Calm Calm - N/A   Mist
4:55 AM 33.8 °F - 32.0 °F 93% 30.27 in 0.9 mi WNW 1.2 mph - N/A   Mist
5:04 AM 33.8 °F - 33.8 °F 100% 30.27 in 1.1 mi NW 1.2 mph - N/A   Mist
5:08 AM 33.8 °F - 33.8 °F 100% 30.27 in 6.2 mi NNE 1.2 mph - N/A   Unknown
5:14 AM 33.8 °F - 32.0 °F 93% 30.27 in 0.7 mi NE 1.2 mph - N/A   Mist
5:19 AM 32.0 °F - 32.0 °F 100% 30.27 in 1.2 mi North 1.2 mph - N/A   Mist
5:25 AM 33.8 °F - 33.8 °F 100% 30.27 in 4.3 mi NNE 1.2 mph - N/A   Mist
5:29 AM 33.8 °F - 32.0 °F 93% 30.27 in 6.2 mi NE 1.2 mph - N/A   Unknown
5:37 AM 32.0 °F - 32.0 °F 100% 30.27 in 4.3 mi NE 1.2 mph - N/A   Mist
5:41 AM 32.0 °F - 32.0 °F 100% 30.27 in - NE 1.2 mph - N/A   Mist
5:44 AM 32.0 °F - 32.0 °F 100% 30.27 in 1.7 mi NNE 1.2 mph - N/A   Mist
5:51 AM 32.0 °F 28.7 °F 32.0 °F 100% 30.27 in 2.5 mi North 3.5 mph - N/A   Mist
5:55 AM 32.0 °F 27.5 °F 32.0 °F 100% 30.27 in 5.6 mi North 4.6 mph - N/A   Mist
6:05 AM 33.8 °F 29.6 °F 33.8 °F 100% 30.27 in 6.2 mi North 4.6 mph - N/A   Unknown
6:25 AM 35.6 °F 31.7 °F 35.6 °F 100% 30.27 in 6.2 mi NNE 4.6 mph - N/A   Unknown
6:55 AM 37.4 °F 33.8 °F 35.6 °F 93% 30.27 in 6.2 mi NNE 4.6 mph - N/A   Unknown
7:11 AM 35.6 °F 31.7 °F 33.8 °F 93% 30.30 in 6.2 mi NNE 4.6 mph - N/A   Unknown
7:25 AM 35.6 °F 31.7 °F 33.8 °F 93% 30.30 in 6.2 mi North 4.6 mph - N/A   Unknown
7:55 AM 35.6 °F 30.7 °F 35.6 °F 100% 30.33 in 6.2 mi North 5.8 mph - N/A   Unknown
8:12 AM 37.4 °F 33.8 °F 35.6 °F 93% 30.33 in 6.2 mi NNE 4.6 mph - N/A   Unknown
8:25 AM 37.4 °F 32.8 °F 37.4 °F 100% 30.33 in 6.2 mi NNE 5.8 mph - N/A   Unknown
8:55 AM 39.2 °F 35.9 °F 37.4 °F 93% 30.33 in 6.2 mi North 4.6 mph - N/A   Unknown
9:25 AM 42.8 °F 38.6 °F 41.0 °F 93% 30.36 in 6.2 mi North 6.9 mph - N/A   Unknown
9:55 AM 44.6 °F 40.7 °F 42.8 °F 93% 30.36 in 6.2 mi North 6.9 mph - N/A   Unknown
10:25 AM 46.4 °F 42.4 °F 42.8 °F 87% 30.36 in 6.2 mi NNE 8.1 mph - N/A   Unknown
10:55 AM 48.2 °F - 44.6 °F 87% 30.39 in 6.2 mi NNE 8.1 mph - N/A   Unknown
11:25 AM 48.2 °F - 44.6 °F 87% 30.39 in 6.2 mi NE 8.1 mph - N/A   Unknown
11:55 AM 50.0 °F - 44.6 °F 82% 30.39 in 6.2 mi NNE 8.1 mph - N/A   Unknown
12:25 PM 50.0 °F - 44.6 °F 82% 30.39 in 6.2 mi NNE 10.4 mph - N/A   Scattered Clouds
12:55 PM 51.8 °F - 44.6 °F 76% 30.39 in 6.2 mi NE 11.5 mph - N/A   Partly Cloudy
1:01 PM 51.8 °F - 44.6 °F 76% 30.39 in 6.2 mi NE 11.5 mph - N/A   Scattered Clouds
1:05 PM 51.8 °F - 44.6 °F 76% 30.39 in 6.2 mi NE 11.5 mph - N/A   Partly Cloudy
1:25 PM 51.8 °F - 42.8 °F 71% 30.39 in 6.2 mi NE 11.5 mph - N/A   Partly Cloudy
1:55 PM 51.8 °F - 42.8 °F 71% 30.39 in 6.2 mi NE 11.5 mph - N/A   Unknown
2:25 PM 51.8 °F - 42.8 °F 71% 30.39 in 6.2 mi NE 10.4 mph - N/A   Scattered Clouds
2:29 PM 51.8 °F - 42.8 °F 71% 30.39 in 6.2 mi NE 10.4 mph - N/A   Scattered Clouds
2:55 PM 51.8 °F - 41.0 °F 67% 30.39 in 6.2 mi NE 11.5 mph - N/A   Partly Cloudy
3:25 PM 51.8 °F - 42.8 °F 71% 30.39 in 6.2 mi NE 8.1 mph - N/A   Unknown
3:55 PM 51.8 °F - 42.8 °F 71% 30.39 in 6.2 mi NNE 8.1 mph - N/A   Partly Cloudy
3:59 PM 51.8 °F - 42.8 °F 71% 30.39 in 6.2 mi NNE 8.1 mph - N/A   Scattered Clouds
4:03 PM 51.8 °F - 44.6 °F 76% 30.42 in 6.2 mi NNE 6.9 mph - N/A   Mostly Cloudy
4:07 PM 51.8 °F - 44.6 °F 76% 30.42 in 6.2 mi NNE 5.8 mph - N/A   Overcast
4:11 PM 50.0 °F - 44.6 °F 82% 30.42 in 6.2 mi NE 5.8 mph - N/A   Overcast
4:12 PM 50.0 °F - 44.6 °F 82% 30.42 in 6.2 mi NNE 5.8 mph - N/A   Overcast
4:15 PM 50.0 °F - 44.6 °F 82% 30.42 in 6.2 mi NNE 5.8 mph - N/A   Overcast
4:25 PM 50.0 °F - 42.8 °F 76% 30.42 in 6.2 mi NNE 9.2 mph - N/A   Mostly Cloudy
4:29 PM 50.0 °F - 42.8 °F 76% 30.42 in 6.2 mi NE 10.4 mph - N/A   Mostly Cloudy
4:32 PM 48.2 °F - 42.8 °F 82% 30.42 in 6.2 mi NE 9.2 mph - N/A   Partly Cloudy
4:36 PM 48.2 °F - 42.8 °F 82% 30.42 in 6.2 mi NNE 6.9 mph - N/A   Unknown
4:55 PM 46.4 °F 44.3 °F 42.8 °F 87% 30.42 in 6.2 mi NNE 4.6 mph - N/A   Unknown
5:25 PM 44.6 °F 42.2 °F 42.8 °F 93% 30.42 in 6.2 mi North 4.6 mph - N/A   Unknown
5:55 PM 42.8 °F 41.1 °F 41.0 °F 93% 30.42 in 6.2 mi NNE 3.5 mph - N/A   Partly Cloudy
6:25 PM 39.2 °F - 39.2 °F 100% 30.42 in 6.2 mi NE 1.2 mph - N/A   Unknown
6:55 PM 41.0 °F - 41.0 °F 100% 30.42 in 6.2 mi NE 2.3 mph - N/A   Unknown
7:25 PM 41.0 °F - 41.0 °F 100% 30.45 in 6.2 mi ENE 2.3 mph - N/A   Partly Cloudy
7:29 PM 41.0 °F 39.0 °F 41.0 °F 100% 30.45 in 6.2 mi ENE 3.5 mph - N/A   Scattered Clouds
7:35 PM 39.2 °F 37.0 °F 39.2 °F 100% 30.45 in 6.2 mi NE 3.5 mph - N/A   Partly Cloudy
7:41 PM 39.2 °F 37.0 °F 39.2 °F 100% 30.45 in 4.3 mi NNE 3.5 mph - N/A   Mist
7:50 PM 41.0 °F - 41.0 °F 100% 30.45 in 5.6 mi ENE 2.3 mph - N/A   Mist
7:55 PM 41.0 °F - 41.0 °F 100% 30.45 in 6.2 mi East 2.3 mph - N/A   Unknown
8:06 PM 37.4 °F - 37.4 °F 100% 30.45 in 4.3 mi East 2.3 mph - N/A   Mist
8:10 PM 37.4 °F - 37.4 °F 100% 30.45 in 0.4 mi ENE 1.2 mph - N/A Fog Fog
8:21 PM 37.4 °F - 35.6 °F 93% 30.45 in 0.5 mi NNE 1.2 mph - N/A Fog Fog
8:25 PM 37.4 °F - 37.4 °F 100% 30.45 in - NNE 1.2 mph - N/A Fog Fog
8:55 PM 37.4 °F - 37.4 °F 100% 30.48 in 0.5 mi NE 1.2 mph - N/A Fog Fog
9:01 PM 37.4 °F - 37.4 °F 100% 30.48 in 0.3 mi NE 1.2 mph - N/A Fog Fog
9:10 PM 37.4 °F - 37.4 °F 100% 30.48 in 0.5 mi ENE 1.2 mph - N/A Fog Fog
9:14 PM 37.4 °F - 37.4 °F 100% 30.48 in 1.2 mi East 2.3 mph - N/A   Scattered Clouds
9:18 PM 37.4 °F - 37.4 °F 100% 30.48 in 3.1 mi East 2.3 mph - N/A   Mostly Cloudy
9:25 PM 35.6 °F - 35.6 °F 100% 30.48 in - East 2.3 mph - N/A   Overcast
9:37 PM 37.4 °F - 35.6 °F 93% 30.48 in - NE 1.2 mph - N/A   Overcast
9:47 PM 37.4 °F - 37.4 °F 100% 30.48 in - NE 1.2 mph - N/A   Overcast
9:55 PM 37.4 °F - 37.4 °F 100% 30.48 in - NNE 2.3 mph - N/A   Overcast
10:01 PM 39.2 °F - 39.2 °F 100% 30.48 in - NE 2.3 mph - N/A   Overcast
10:05 PM 41.0 °F - 41.0 °F 100% 30.48 in 3.1 mi ENE 2.3 mph - N/A   Overcast
10:12 PM 39.2 °F - 39.2 °F 100% 30.48 in - ENE 1.2 mph - N/A   Mostly Cloudy
10:17 PM 39.2 °F - 39.2 °F 100% 30.48 in - Calm Calm - N/A Fog Fog
10:25 PM 39.2 °F - 39.2 °F 100% 30.48 in 0.4 mi West 1.2 mph - N/A Fog Fog
10:36 PM 37.4 °F - 37.4 °F 100% 30.48 in 0.3 mi West 1.2 mph - N/A Fog Fog
10:40 PM 37.4 °F - 37.4 °F 100% 30.48 in 0.2 mi WSW 1.2 mph - N/A Fog Fog
10:44 PM 37.4 °F - 37.4 °F 100% 30.48 in 0.2 mi WSW 1.2 mph - N/A Fog Fog
10:55 PM 37.4 °F - 37.4 °F 100% 30.48 in 0.2 mi ENE 1.2 mph - N/A Fog Fog
11:06 PM 35.6 °F - 35.6 °F 100% 30.48 in - North 2.3 mph - N/A Fog Fog
11:25 PM 37.4 °F - 37.4 °F 100% 30.48 in 0.3 mi ENE 1.2 mph - N/A Fog Fog
11:55 PM 33.8 °F - 33.8 °F 100% 30.48 in 0.2 mi Calm Calm - N/A Fog Fog